Date/Time,Expocode,Latitude,Longitude,Depth,version,SOCAT_DOI,QC_Flag,P_sal,Temp,Temperature of Equilibration,Atmospheric Pressure,Equilibrator Pressure (relative),WOA_SSS,NCEP_SLP,ETOPO2_depth,dist_to_land,GVCO2,CO2 Mole Fraction,xCO2water_SST_dry,pCO2 In Water - Equilibrator Temperature,pCO2,fCO2water_equ_wet,fCO2water_SST_wet,fCO2,fCO2rec_src,fCO2  QC Flag,pCO2  QC Flag,P_sal  QC Flag,Temp  QC Flag
2019-03-08T22:34:23.000Z,26NA20190308,57.399,10.724,,2020.0N,SOCATENHANCEDDOI,B,,20.027,,996.97,,35.0,998.1,24.0,54.0,,,,,,,,,0,9,9,9,9
2019-03-08T22:38:54.000Z,26NA20190308,57.419,10.727,,2020.0N,SOCATENHANCEDDOI,B,,4.719,5.06,997.23,1000.2,35.0,998.1,26.0,54.0,,,,,,,,,0,9,9,9,9
2019-03-08T22:43:48.000Z,26NA20190308,57.441,10.732,,2020.0N,SOCATENHANCEDDOI,B,,4.687,4.98,997.1,1000.0,35.0,998.1,28.0,54.0,,,,,,,,,0,9,9,9,9
2019-03-08T22:48:19.000Z,26NA20190308,57.463,10.737,,2020.0N,SOCATENHANCEDDOI,B,,4.669,4.93,997.05,1000.0,35.0,998.1,30.0,54.0,,,,,,,,,0,9,9,9,9
2019-03-08T22:52:49.000Z,26NA20190308,57.485,10.74,,2020.0N,SOCATENHANCEDDOI,B,,4.693,4.96,996.86,999.9,35.0,998.1,31.0,54.0,,,,,,,,,0,9,9,9,9
2019-03-08T22:57:20.000Z,26NA20190308,57.507,10.743,,2020.0N,SOCATENHANCEDDOI,B,,4.664,4.92,996.59,999.7,35.0,998.1,31.0,54.0,,,,,,,,,0,9,9,9,9
2019-03-08T23:01:50.000Z,26NA20190308,57.529,10.745,,2020.0N,SOCATENHANCEDDOI,B,,4.706,4.93,996.53,999.5,35.0,998.1,30.0,54.0,,,,,,,,,0,9,9,9,9
2019-03-08T23:06:20.000Z,26NA20190308,57.551,10.747,,2020.0N,SOCATENHANCEDDOI,B,,4.72,4.96,996.59,999.6,35.0,998.1,29.0,53.0,,,,,,,,,0,9,9,9,9
2019-03-08T23:07:50.000Z,26NA20190308,57.558,10.748,,2020.0N,SOCATENHANCEDDOI,B,,4.713,4.97,996.54,999.5,35.0,998.1,28.0,53.0,,,,,,,,,0,9,9,9,9
2019-03-08T23:09:21.000Z,26NA20190308,57.566,10.748,,2020.0N,SOCATENHANCEDDOI,B,,4.732,4.97,996.54,999.5,35.0,998.1,28.0,52.0,,,,,,,,,0,9,9,9,9
2019-03-08T23:10:51.000Z,26NA20190308,57.573,10.748,,2020.0N,SOCATENHANCEDDOI,B,,4.709,4.98,996.49,999.4,35.0,998.1,28.0,52.0,,,,,,,,,0,9,9,9,9
2019-03-08T23:12:21.000Z,26NA20190308,57.58,10.749,,2020.0N,SOCATENHANCEDDOI,B,,4.681,4.94,996.5,999.4,35.0,998.1,27.0,52.0,,,,,,,,,0,9,9,9,9
2019-03-08T23:17:17.000Z,26NA20190308,57.604,10.749,,2020.0N,SOCATENHANCEDDOI,B,,4.669,4.92,996.29,999.4,35.0,998.1,26.0,51.0,,395.1,,,382.4,,380.8,380.842,4,2,9,9,9
2019-03-08T23:18:50.000Z,26NA20190308,57.611,10.75,,2020.0N,SOCATENHANCEDDOI,B,,4.679,4.92,996.42,999.4,35.0,998.1,25.0,51.0,,386.6,,,374.2,,372.7,372.676,4,2,9,9,9
2019-03-08T23:20:23.000Z,26NA20190308,57.619,10.75,,2020.0N,SOCATENHANCEDDOI,B,,4.675,4.92,996.4,999.3,35.0,998.1,25.0,50.0,,381.9,,,369.6,,368.1,368.095,4,2,9,9,9
2019-03-08T23:21:57.000Z,26NA20190308,57.626,10.75,,2020.0N,SOCATENHANCEDDOI,B,,4.67,4.91,996.34,999.1,35.0,998.1,24.0,50.0,,380.5,,,368.3,,366.8,366.8,4,2,9,9,9
2019-03-08T23:23:29.000Z,26NA20190308,57.634,10.751,,2020.0N,SOCATENHANCEDDOI,B,,4.654,4.91,996.32,999.2,35.0,998.1,24.0,50.0,,380.5,,,368.0,,366.5,366.501,4,2,9,9,9
2019-03-08T23:25:02.000Z,26NA20190308,57.641,10.751,,2020.0N,SOCATENHANCEDDOI,B,,4.636,4.9,996.31,999.1,35.0,998.1,24.0,50.0,,382.6,,,369.9,,368.4,368.393,4,2,9,9,9
2019-03-08T23:26:35.000Z,26NA20190308,57.649,10.752,,2020.0N,SOCATENHANCEDDOI,B,,4.675,4.91,996.22,999.1,35.0,998.1,23.0,49.0,,387.7,,,375.2,,373.7,373.672,4,2,9,9,9
2019-03-08T23:28:07.000Z,26NA20190308,57.656,10.753,,2020.0N,SOCATENHANCEDDOI,B,,4.683,4.92,996.22,999.1,35.0,998.1,24.0,49.0,,392.5,,,379.8,,378.3,378.254,4,2,9,9,9
2019-03-08T23:29:40.000Z,26NA20190308,57.663,10.754,,2020.0N,SOCATENHANCEDDOI,B,,4.649,4.92,996.11,999.0,35.0,998.1,24.0,49.0,,396.3,,,383.0,,381.4,381.44,4,2,9,9,9
2019-03-08T23:31:12.000Z,26NA20190308,57.671,10.755,,2020.0N,SOCATENHANCEDDOI,B,,4.634,4.88,996.1,999.0,35.0,998.1,24.0,49.0,,402.2,,,389.1,,387.5,387.515,4,2,9,9,9
2019-03-08T23:32:45.000Z,26NA20190308,57.678,10.755,,2020.0N,SOCATENHANCEDDOI,B,,4.644,4.88,996.02,999.1,35.0,998.1,25.0,48.0,,405.9,,,392.9,,391.3,391.299,4,2,9,9,9
2019-03-08T23:34:17.000Z,26NA20190308,57.686,10.757,,2020.0N,SOCATENHANCEDDOI,B,,4.674,4.91,995.92,998.9,35.0,998.1,25.0,48.0,,408.4,,,395.3,,393.7,393.691,4,2,9,9,9
2019-03-08T23:35:50.000Z,26NA20190308,57.693,10.758,,2020.0N,SOCATENHANCEDDOI,B,,4.7,4.92,995.85,998.9,35.0,998.1,25.0,48.0,,411.3,,,398.3,,396.7,396.679,4,2,9,9,9
2019-03-08T23:37:44.000Z,26NA20190308,57.702,10.759,,2020.0N,SOCATENHANCEDDOI,B,,4.734,4.97,995.94,999.0,35.0,998.1,25.0,47.0,,412.4,,,399.1,,397.5,397.476,4,2,9,9,9
2019-03-08T23:39:16.000Z,26NA20190308,57.71,10.76,,2020.0N,SOCATENHANCEDDOI,B,,4.745,4.99,995.86,998.8,35.0,998.1,25.0,47.0,,411.7,,,398.2,,396.6,396.581,4,2,9,9,9
2019-03-08T23:40:49.000Z,26NA20190308,57.717,10.762,,2020.0N,SOCATENHANCEDDOI,B,,4.72,4.97,995.78,998.7,35.0,998.1,26.0,47.0,,409.5,,,396.0,,394.4,394.389,4,2,9,9,9
2019-03-08T23:42:21.000Z,26NA20190308,57.725,10.763,,2020.0N,SOCATENHANCEDDOI,B,,4.737,4.96,995.72,998.9,35.0,998.1,28.0,46.0,,409.0,,,396.0,,394.4,394.389,4,2,9,9,9
2019-03-08T23:43:54.000Z,26NA20190308,57.732,10.764,,2020.0N,SOCATENHANCEDDOI,B,,4.78,4.99,995.68,998.7,35.0,998.1,30.0,46.0,,408.6,,,395.8,,394.2,394.191,4,2,9,9,9
2019-03-08T23:45:26.000Z,26NA20190308,57.739,10.766,,2020.0N,SOCATENHANCEDDOI,B,,4.751,5.01,995.75,998.5,35.0,998.1,33.0,46.0,,405.7,,,392.1,,390.5,390.506,4,2,9,9,9
2019-03-08T23:46:59.000Z,26NA20190308,57.747,10.767,,2020.0N,SOCATENHANCEDDOI,B,,4.868,5.07,995.6,998.6,35.0,998.1,35.0,46.0,,405.6,,,392.9,,391.4,391.305,4,2,9,9,9
2019-03-08T23:48:32.000Z,26NA20190308,57.754,10.769,,2020.0N,SOCATENHANCEDDOI,B,,4.941,5.12,995.66,998.6,35.0,998.1,38.0,45.0,,405.6,,,393.3,,391.7,391.705,4,2,9,9,9
2019-03-08T23:50:04.000Z,26NA20190308,57.761,10.767,,2020.0N,SOCATENHANCEDDOI,B,,4.997,5.2,995.36,998.3,35.0,998.1,42.0,45.0,,406.3,,,393.5,,391.9,391.906,4,2,9,9,9
2019-03-08T23:51:37.000Z,26NA20190308,57.767,10.761,,2020.0N,SOCATENHANCEDDOI,B,,5.089,5.28,995.15,998.4,35.0,998.1,45.0,45.0,,403.6,,,391.0,,389.4,389.418,4,2,9,9,9
2019-03-08T23:53:09.000Z,26NA20190308,57.773,10.754,,2020.0N,SOCATENHANCEDDOI,B,,5.102,5.33,995.25,998.2,35.0,998.1,48.0,45.0,,380.7,,,368.2,,366.8,366.711,4,2,9,9,9
2019-03-08T23:54:42.000Z,26NA20190308,57.779,10.748,,2020.0N,SOCATENHANCEDDOI,B,,5.036,5.31,995.17,998.4,35.0,998.1,51.0,45.0,,365.5,,,352.9,,351.5,351.471,4,2,9,9,9
2019-03-08T23:56:15.000Z,26NA20190308,57.784,10.741,,2020.0N,SOCATENHANCEDDOI,B,,5.029,5.28,995.13,998.2,35.0,998.1,55.0,45.0,,354.8,,,342.8,,341.4,341.412,4,2,9,9,9
2019-03-08T23:57:47.000Z,26NA20190308,57.786,10.73,,2020.0N,SOCATENHANCEDDOI,B,,5.026,5.26,994.95,998.0,35.0,998.1,57.0,46.0,,350.8,,,339.1,,337.7,337.727,4,2,9,9,9
2019-03-08T23:59:20.000Z,26NA20190308,57.786,10.719,,2020.0N,SOCATENHANCEDDOI,B,,5.016,5.26,994.95,997.9,35.0,998.1,58.0,46.0,,352.9,,,341.0,,339.6,339.619,4,2,9,9,9
2019-03-09T00:00:52.000Z,26NA20190308,57.786,10.708,,2020.0N,SOCATENHANCEDDOI,B,,5.025,5.26,994.81,997.9,35.0,987.8,58.0,46.0,,355.3,,,343.5,,342.1,342.109,4,2,9,9,9
2019-03-09T00:02:25.000Z,26NA20190308,57.786,10.697,,2020.0N,SOCATENHANCEDDOI,B,,5.021,5.26,994.91,998.0,35.0,987.8,59.0,47.0,,356.4,,,344.5,,343.1,343.105,4,2,9,9,9
2019-03-09T00:03:57.000Z,26NA20190308,57.786,10.686,,2020.0N,SOCATENHANCEDDOI,B,,5.024,5.26,994.75,997.6,35.0,987.8,59.0,47.0,,357.1,,,345.1,,343.7,343.703,4,2,9,9,9
2019-03-09T00:05:30.000Z,26NA20190308,57.786,10.675,,2020.0N,SOCATENHANCEDDOI,B,,5.029,5.26,994.81,997.8,35.0,987.8,61.0,48.0,,357.5,,,345.6,,344.2,344.201,4,2,9,9,9
2019-03-09T00:07:03.000Z,26NA20190308,57.785,10.664,,2020.0N,SOCATENHANCEDDOI,B,,5.027,5.27,994.76,997.8,35.0,987.8,64.0,48.0,,357.1,,,345.0,,343.6,343.604,4,2,9,9,9
2019-03-09T00:08:35.000Z,26NA20190308,57.785,10.653,,2020.0N,SOCATENHANCEDDOI,B,,5.025,5.26,994.82,997.9,35.0,987.8,66.0,48.0,,356.9,,,344.9,,343.5,343.504,4,2,9,9,9
2019-03-09T00:10:08.000Z,26NA20190308,57.785,10.642,,2020.0N,SOCATENHANCEDDOI,B,,5.027,5.26,994.6,997.8,35.0,987.8,68.0,49.0,,356.8,,,344.9,,343.5,343.504,4,2,9,9,9
2019-03-09T00:11:40.000Z,26NA20190308,57.785,10.631,,2020.0N,SOCATENHANCEDDOI,B,,5.025,5.27,994.52,997.7,35.0,987.8,71.0,49.0,,356.3,,,344.2,,342.8,342.807,4,2,9,9,9
2019-03-09T00:13:13.000Z,26NA20190308,57.785,10.62,,2020.0N,SOCATENHANCEDDOI,B,,5.024,5.26,994.68,997.8,35.0,987.8,74.0,50.0,,356.2,,,344.2,,342.8,342.807,4,2,9,9,9
2019-03-09T00:14:45.000Z,26NA20190308,57.785,10.609,,2020.0N,SOCATENHANCEDDOI,B,,5.025,5.26,994.65,997.8,35.0,987.8,75.0,50.0,,356.6,,,344.6,,343.2,343.205,4,2,9,9,9
2019-03-09T00:16:18.000Z,26NA20190308,57.785,10.598,,2020.0N,SOCATENHANCEDDOI,B,,5.02,5.26,994.84,997.7,35.0,987.8,77.0,51.0,,357.0,,,344.9,,343.5,343.504,4,2,9,9,9
2019-03-09T00:17:51.000Z,26NA20190308,57.785,10.587,,2020.0N,SOCATENHANCEDDOI,B,,5.024,5.25,994.72,997.8,35.0,987.8,78.0,51.0,,357.6,,,345.7,,344.3,344.301,4,2,9,9,9
2019-03-09T00:19:23.000Z,26NA20190308,57.786,10.575,,2020.0N,SOCATENHANCEDDOI,B,,5.029,5.26,994.64,997.6,35.0,987.8,80.0,51.0,,365.2,,,352.9,,351.5,351.472,4,2,9,9,9
2019-03-09T00:20:56.000Z,26NA20190308,57.786,10.564,,2020.0N,SOCATENHANCEDDOI,B,,5.041,5.27,994.64,997.7,35.0,987.8,82.0,52.0,,373.7,,,361.2,,359.8,359.738,4,2,9,9,9
2019-03-09T00:22:28.000Z,26NA20190308,57.785,10.553,,2020.0N,SOCATENHANCEDDOI,B,,5.057,5.28,994.47,997.6,35.0,987.8,84.0,52.0,,379.5,,,366.8,,365.4,365.316,4,2,9,9,9
2019-03-09T00:24:01.000Z,26NA20190308,57.785,10.542,,2020.0N,SOCATENHANCEDDOI,B,,5.07,5.3,994.39,997.6,35.0,987.8,85.0,53.0,,384.1,,,371.3,,369.8,369.798,4,2,9,9,9
2019-03-09T00:25:34.000Z,26NA20190308,57.784,10.531,,2020.0N,SOCATENHANCEDDOI,B,,5.149,5.33,994.38,997.5,35.0,987.8,86.0,53.0,,387.1,,,374.8,,373.3,373.286,4,2,9,9,9
2019-03-09T00:27:08.000Z,26NA20190308,57.784,10.52,,2020.0N,SOCATENHANCEDDOI,B,,5.254,5.41,994.33,997.3,35.0,987.8,87.0,53.0,,387.1,,,375.2,,373.7,373.687,4,2,9,9,9
2019-03-09T00:28:40.000Z,26NA20190308,57.784,10.509,,2020.0N,SOCATENHANCEDDOI,B,,5.338,5.53,994.3,997.4,35.0,987.8,89.0,54.0,,380.7,,,368.4,,366.9,366.916,4,2,9,9,9
2019-03-09T00:30:13.000Z,26NA20190308,57.783,10.498,,2020.0N,SOCATENHANCEDDOI,B,,5.378,5.59,994.31,997.1,35.0,987.8,92.0,54.0,,371.9,,,359.4,,358.0,357.953,4,2,9,9,9
2019-03-09T00:31:45.000Z,26NA20190308,57.783,10.487,,2020.0N,SOCATENHANCEDDOI,B,,5.399,5.62,994.32,997.3,35.0,987.8,95.0,55.0,,366.3,,,353.9,,352.5,352.475,4,2,9,9,9
2019-03-09T00:33:18.000Z,26NA20190308,57.782,10.475,,2020.0N,SOCATENHANCEDDOI,B,,5.422,5.64,994.1,997.1,35.0,987.8,96.0,55.0,,363.7,,,351.4,,350.0,349.986,4,2,9,9,9
2019-03-09T00:34:51.000Z,26NA20190308,57.783,10.464,,2020.0N,SOCATENHANCEDDOI,B,,5.446,5.66,994.1,997.3,35.0,987.8,97.0,55.0,,362.6,,,350.5,,349.1,349.09,4,2,9,9,9
2019-03-09T00:36:23.000Z,26NA20190308,57.783,10.453,,2020.0N,SOCATENHANCEDDOI,B,,5.475,5.7,994.12,997.2,35.0,987.8,98.0,56.0,,362.2,,,349.9,,348.5,348.493,4,2,9,9,9
2019-03-09T00:38:17.000Z,26NA20190308,57.783,10.439,,2020.0N,SOCATENHANCEDDOI,B,,5.492,5.72,993.9,997.0,35.0,987.8,97.0,56.0,,362.7,,,350.3,,348.9,348.892,4,2,9,9,9
2019-03-09T00:39:49.000Z,26NA20190308,57.783,10.428,,2020.0N,SOCATENHANCEDDOI,B,,5.474,5.71,994.04,997.0,35.0,987.8,95.0,57.0,,363.2,,,350.6,,349.2,349.19,4,2,9,9,9
2019-03-09T00:41:22.000Z,26NA20190308,57.783,10.417,,2020.0N,SOCATENHANCEDDOI,B,,5.487,5.72,993.96,997.0,35.0,987.8,93.0,57.0,,363.7,,,351.2,,349.8,349.788,4,2,9,9,9
2019-03-09T00:42:54.000Z,26NA20190308,57.783,10.406,,2020.0N,SOCATENHANCEDDOI,B,,5.485,5.72,993.96,997.1,35.0,987.8,91.0,57.0,,364.0,,,351.4,,350.0,349.987,4,2,9,9,9
2019-03-09T00:44:27.000Z,26NA20190308,57.783,10.395,,2020.0N,SOCATENHANCEDDOI,B,,5.495,5.74,994.04,997.0,35.0,987.8,90.0,58.0,,364.2,,,351.5,,350.1,350.087,4,2,9,9,9
2019-03-09T00:46:00.000Z,26NA20190308,57.783,10.384,,2020.0N,SOCATENHANCEDDOI,B,,5.486,5.73,993.88,996.9,35.0,987.8,89.0,58.0,,364.3,,,351.6,,350.2,350.187,4,2,9,9,9
2019-03-09T00:47:32.000Z,26NA20190308,57.783,10.373,,2020.0N,SOCATENHANCEDDOI,B,,5.457,5.71,993.74,996.9,35.0,987.8,87.0,59.0,,364.4,,,351.5,,350.1,350.087,4,2,9,9,9
2019-03-09T00:49:05.000Z,26NA20190308,57.783,10.362,,2020.0N,SOCATENHANCEDDOI,B,,5.469,5.72,993.81,996.7,35.0,987.8,85.0,59.0,,364.5,,,351.6,,350.2,350.187,4,2,9,9,9
2019-03-09T00:50:37.000Z,26NA20190308,57.783,10.351,,2020.0N,SOCATENHANCEDDOI,B,,5.493,5.71,993.82,996.9,35.0,987.8,83.0,59.0,,364.5,,,352.1,,350.7,350.685,4,2,9,9,9
2019-03-09T00:52:10.000Z,26NA20190308,57.783,10.34,,2020.0N,SOCATENHANCEDDOI,B,,5.501,5.72,993.81,996.8,35.0,987.8,82.0,60.0,,364.5,,,352.1,,350.7,350.685,4,2,9,9,9
2019-03-09T00:53:42.000Z,26NA20190308,57.784,10.329,,2020.0N,SOCATENHANCEDDOI,B,,5.547,5.76,993.75,996.7,35.0,987.8,82.0,60.0,,364.6,,,352.2,,350.8,350.786,4,2,9,9,9
2019-03-09T00:55:15.000Z,26NA20190308,57.784,10.318,,2020.0N,SOCATENHANCEDDOI,B,,5.602,5.81,993.68,996.5,35.0,987.8,81.0,61.0,,364.8,,,352.4,,351.0,350.986,4,2,9,9,9
2019-03-09T00:56:48.000Z,26NA20190308,57.784,10.306,,2020.0N,SOCATENHANCEDDOI,B,,5.595,5.82,993.71,996.6,35.0,987.8,81.0,61.0,,365.3,,,352.7,,351.3,351.285,4,2,9,9,9
2019-03-09T00:58:20.000Z,26NA20190308,57.784,10.295,,2020.0N,SOCATENHANCEDDOI,B,,5.615,5.84,993.46,996.6,35.0,987.8,81.0,61.0,,365.7,,,353.1,,351.6,351.684,4,2,9,9,9
2019-03-09T00:59:53.000Z,26NA20190308,57.784,10.283,,2020.0N,SOCATENHANCEDDOI,B,,5.677,5.87,993.58,996.5,35.0,987.8,81.0,62.0,,366.2,,,354.0,,352.6,352.581,4,2,9,9,9
2019-03-09T01:01:25.000Z,26NA20190308,57.784,10.272,,2020.0N,SOCATENHANCEDDOI,B,,5.729,5.93,993.55,996.7,35.0,987.8,81.0,62.0,,367.2,,,354.8,,353.4,353.379,4,2,9,9,9
2019-03-09T01:02:58.000Z,26NA20190308,57.784,10.26,,2020.0N,SOCATENHANCEDDOI,B,,5.769,5.97,993.46,996.4,35.0,987.8,81.0,63.0,,368.5,,,356.0,,354.6,354.575,4,2,9,9,9
2019-03-09T01:04:31.000Z,26NA20190308,57.784,10.248,,2020.0N,SOCATENHANCEDDOI,B,,5.806,6.01,993.26,996.3,35.0,987.8,81.0,63.0,,370.1,,,357.5,,356.1,356.07,4,2,9,9,9
2019-03-09T01:06:03.000Z,26NA20190308,57.783,10.236,,2020.0N,SOCATENHANCEDDOI,B,,5.795,6.02,993.31,996.5,35.0,987.8,80.0,63.0,,372.1,,,359.1,,357.7,357.663,4,2,9,9,9
2019-03-09T01:07:36.000Z,26NA20190308,57.783,10.225,,2020.0N,SOCATENHANCEDDOI,B,,5.823,6.04,993.42,996.4,35.0,987.8,79.0,64.0,,373.3,,,360.4,,358.9,358.958,4,2,9,9,9
2019-03-09T01:09:08.000Z,26NA20190308,57.783,10.213,,2020.0N,SOCATENHANCEDDOI,B,,5.737,5.97,993.23,996.2,35.0,987.8,78.0,64.0,,374.6,,,361.3,,359.9,359.854,4,2,9,9,9
2019-03-09T01:10:41.000Z,26NA20190308,57.783,10.202,,2020.0N,SOCATENHANCEDDOI,B,,5.734,5.92,993.3,996.3,35.0,987.8,76.0,65.0,,373.3,,,360.8,,359.4,359.355,4,2,9,9,9
2019-03-09T01:12:16.000Z,26NA20190308,57.783,10.19,,2020.0N,SOCATENHANCEDDOI,B,,5.742,5.98,993.16,996.0,35.0,987.8,74.0,65.0,,372.6,,,359.3,,357.9,357.862,4,2,9,9,9
2019-03-09T01:13:48.000Z,26NA20190308,57.783,10.179,,2020.0N,SOCATENHANCEDDOI,B,,5.787,6.03,993.13,996.2,35.0,987.8,72.0,65.0,,373.4,,,360.0,,358.6,358.56,4,2,9,9,9
2019-03-09T01:15:21.000Z,26NA20190308,57.783,10.167,,2020.0N,SOCATENHANCEDDOI,B,,5.907,6.02,992.74,996.0,35.0,987.8,70.0,66.0,,375.0,,,363.5,,362.1,362.048,4,2,9,9,9
2019-03-09T01:16:54.000Z,26NA20190308,57.783,10.155,,2020.0N,SOCATENHANCEDDOI,B,,5.968,6.17,992.84,996.1,35.0,987.8,68.0,66.0,,377.0,,,364.0,,362.6,362.547,4,2,9,9,9
2019-03-09T01:18:26.000Z,26NA20190308,57.782,10.143,,2020.0N,SOCATENHANCEDDOI,B,,6.032,6.21,992.63,995.9,35.0,987.8,67.0,66.0,,381.0,,,368.2,,366.7,366.732,4,2,9,9,9
2019-03-09T01:19:59.000Z,26NA20190308,57.782,10.132,,2020.0N,SOCATENHANCEDDOI,B,,6.137,6.34,992.83,995.9,35.0,987.8,67.0,66.0,,384.5,,,371.1,,369.7,369.623,4,2,9,9,9
2019-03-09T01:24:29.000Z,26NA20190308,57.782,10.096,,2020.0N,SOCATENHANCEDDOI,B,,6.163,6.39,992.46,995.8,35.0,987.8,65.0,66.0,,,,,,,,,0,9,9,9,9
2019-03-09T01:29:00.000Z,26NA20190308,57.781,10.06,,2020.0N,SOCATENHANCEDDOI,B,,6.166,6.39,992.47,995.5,35.0,987.8,61.0,66.0,,,,,,,,,0,9,9,9,9
2019-03-09T01:33:30.000Z,26NA20190308,57.781,10.023,,2020.0N,SOCATENHANCEDDOI,B,,6.17,6.4,992.51,995.7,35.0,987.8,56.0,67.0,,,,,,,,,0,9,9,9,9
2019-03-09T01:38:00.000Z,26NA20190308,57.78,9.987,,2020.0N,SOCATENHANCEDDOI,B,,6.161,6.39,992.44,995.6,35.0,987.8,53.0,67.0,,,,,,,,,0,9,9,9,9
2019-03-09T01:42:51.000Z,26NA20190308,57.779,9.947,,2020.0N,SOCATENHANCEDDOI,B,,6.133,6.37,992.31,995.9,35.0,987.8,54.0,67.0,,,,,,,,,0,9,9,9,9
2019-03-09T01:44:22.000Z,26NA20190308,57.779,9.934,,2020.0N,SOCATENHANCEDDOI,B,,6.128,6.36,992.21,995.4,35.0,987.8,54.0,67.0,,,,,,,,,0,9,9,9,9
2019-03-09T01:45:52.000Z,26NA20190308,57.779,9.922,,2020.0N,SOCATENHANCEDDOI,B,,6.119,6.35,992.14,995.4,35.0,987.8,53.0,67.0,,,,,,,,,0,9,9,9,9
2019-03-09T01:47:22.000Z,26NA20190308,57.779,9.909,,2020.0N,SOCATENHANCEDDOI,B,,6.109,6.34,992.23,995.5,35.0,987.8,53.0,67.0,,,,,,,,,0,9,9,9,9
2019-03-09T01:48:53.000Z,26NA20190308,57.778,9.897,,2020.0N,SOCATENHANCEDDOI,B,,6.1,6.33,992.22,995.3,35.0,987.8,51.0,68.0,,,,,,,,,0,9,9,9,9
2019-03-09T01:53:49.000Z,26NA20190308,57.778,9.856,,2020.0N,SOCATENHANCEDDOI,B,,6.047,6.28,991.87,994.9,35.0,987.8,44.0,68.0,,390.3,,,375.9,,374.4,374.403,4,2,9,9,9
2019-03-09T01:55:21.000Z,26NA20190308,57.778,9.844,,2020.0N,SOCATENHANCEDDOI,B,,6.036,6.28,991.83,994.8,35.0,987.8,41.0,68.0,,389.5,,,374.9,,373.4,373.407,4,2,9,9,9
2019-03-09T01:56:54.000Z,26NA20190308,57.778,9.831,,2020.0N,SOCATENHANCEDDOI,B,,6.032,6.26,991.48,994.8,35.0,987.8,38.0,68.0,,388.7,,,374.4,,372.9,372.909,4,2,9,9,9
2019-03-09T01:58:26.000Z,26NA20190308,57.778,9.818,,2020.0N,SOCATENHANCEDDOI,B,,6.036,6.26,991.51,994.8,35.0,987.8,35.0,68.0,,388.0,,,373.7,,372.3,372.212,4,2,9,9,9
2019-03-09T01:59:59.000Z,26NA20190308,57.778,9.806,,2020.0N,SOCATENHANCEDDOI,B,,6.049,6.27,991.42,994.7,35.0,987.8,34.0,68.0,,387.9,,,373.7,,372.3,372.212,4,2,9,9,9
2019-03-09T02:01:32.000Z,26NA20190308,57.778,9.793,,2020.0N,SOCATENHANCEDDOI,B,,6.068,6.28,991.41,994.4,35.0,987.8,33.0,68.0,,388.3,,,374.1,,372.7,372.611,4,2,9,9,9
2019-03-09T02:03:04.000Z,26NA20190308,57.778,9.78,,2020.0N,SOCATENHANCEDDOI,B,,6.14,6.33,991.11,994.7,35.0,987.8,32.0,68.0,,389.1,,,375.3,,373.8,373.808,4,2,9,9,9
2019-03-09T02:04:37.000Z,26NA20190308,57.778,9.767,,2020.0N,SOCATENHANCEDDOI,B,,6.243,6.43,991.23,994.4,35.0,987.8,32.0,69.0,,390.8,,,376.9,,375.4,375.404,4,2,9,9,9
2019-03-09T02:06:09.000Z,26NA20190308,57.778,9.755,,2020.0N,SOCATENHANCEDDOI,B,,6.201,6.47,991.02,994.4,35.0,987.8,32.0,69.0,,393.3,,,377.9,,376.5,376.399,4,2,9,9,9
2019-03-09T02:07:42.000Z,26NA20190308,57.778,9.742,,2020.0N,SOCATENHANCEDDOI,B,,6.136,6.39,991.09,994.2,35.0,987.8,32.0,69.0,,394.3,,,379.1,,377.6,377.593,4,2,9,9,9
2019-03-09T02:09:15.000Z,26NA20190308,57.778,9.729,,2020.0N,SOCATENHANCEDDOI,B,,6.106,6.35,990.89,994.5,35.0,987.8,31.0,69.0,,393.5,,,378.7,,377.2,377.194,4,2,9,9,9
2019-03-09T02:10:47.000Z,26NA20190308,57.778,9.717,,2020.0N,SOCATENHANCEDDOI,B,,6.103,6.33,990.87,994.2,35.0,987.8,31.0,69.0,,392.8,,,378.1,,376.6,376.597,4,2,9,9,9
2019-03-09T02:12:20.000Z,26NA20190308,57.778,9.704,,2020.0N,SOCATENHANCEDDOI,B,,6.113,6.34,990.8,994.1,35.0,987.8,31.0,69.0,,392.5,,,377.8,,376.3,376.298,4,2,9,9,9
2019-03-09T02:13:52.000Z,26NA20190308,57.778,9.691,,2020.0N,SOCATENHANCEDDOI,B,,6.118,6.35,990.85,994.1,35.0,987.8,31.0,69.0,,392.8,,,378.0,,376.5,376.497,4,2,9,9,9
2019-03-09T02:15:25.000Z,26NA20190308,57.778,9.678,,2020.0N,SOCATENHANCEDDOI,B,,6.118,6.35,990.92,993.8,35.0,987.8,31.0,69.0,,393.3,,,378.4,,376.9,376.896,4,2,9,9,9
2019-03-09T02:16:58.000Z,26NA20190308,57.778,9.665,,2020.0N,SOCATENHANCEDDOI,B,,6.118,6.35,990.79,994.1,35.0,987.8,30.0,70.0,,393.6,,,378.8,,377.3,377.294,4,2,9,9,9
2019-03-09T02:18:32.000Z,26NA20190308,57.778,9.652,,2020.0N,SOCATENHANCEDDOI,B,,6.114,6.35,990.62,993.9,35.0,987.8,29.0,70.0,,393.7,,,378.8,,377.3,377.294,4,2,9,9,9
2019-03-09T02:20:04.000Z,26NA20190308,57.779,9.64,,2020.0N,SOCATENHANCEDDOI,B,,6.112,6.34,990.59,993.7,35.0,987.8,29.0,70.0,,393.7,,,378.8,,377.3,377.295,4,2,9,9,9
2019-03-09T02:21:37.000Z,26NA20190308,57.779,9.627,,2020.0N,SOCATENHANCEDDOI,B,,6.107,6.34,990.55,993.7,35.0,987.8,29.0,70.0,,393.4,,,378.4,,376.9,376.896,4,2,9,9,9
2019-03-09T02:23:09.000Z,26NA20190308,57.779,9.614,,2020.0N,SOCATENHANCEDDOI,B,,6.106,6.34,990.43,993.6,35.0,987.8,29.0,70.0,,393.1,,,378.1,,376.6,376.598,4,2,9,9,9
2019-03-09T02:24:42.000Z,26NA20190308,57.779,9.601,,2020.0N,SOCATENHANCEDDOI,B,,6.11,6.33,990.21,993.6,35.0,987.8,29.0,70.0,,393.0,,,378.2,,376.7,376.697,4,2,9,9,9
2019-03-09T02:26:15.000Z,26NA20190308,57.779,9.588,,2020.0N,SOCATENHANCEDDOI,B,,6.114,6.34,990.23,993.4,35.0,987.8,29.0,70.0,,392.9,,,378.0,,376.5,376.498,4,2,9,9,9
2019-03-09T02:27:47.000Z,26NA20190308,57.779,9.576,,2020.0N,SOCATENHANCEDDOI,B,,6.121,6.35,990.21,993.6,35.0,987.8,30.0,70.0,,392.9,,,378.0,,376.5,376.498,4,2,9,9,9
2019-03-09T02:29:20.000Z,26NA20190308,57.779,9.563,,2020.0N,SOCATENHANCEDDOI,B,,6.123,6.36,990.06,993.3,35.0,987.8,31.0,71.0,,393.5,,,378.3,,376.8,376.797,4,2,9,9,9
2019-03-09T02:30:52.000Z,26NA20190308,57.779,9.55,,2020.0N,SOCATENHANCEDDOI,B,,6.113,6.35,990.01,993.3,35.0,987.8,32.0,71.0,,393.8,,,378.6,,377.1,377.096,4,2,9,9,9
2019-03-09T02:32:25.000Z,26NA20190308,57.779,9.537,,2020.0N,SOCATENHANCEDDOI,B,,6.121,6.35,990.18,993.1,35.0,987.8,35.0,71.0,,393.7,,,378.6,,377.1,377.097,4,2,9,9,9
2019-03-09T02:33:58.000Z,26NA20190308,57.779,9.525,,2020.0N,SOCATENHANCEDDOI,B,,6.133,6.36,989.87,993.1,35.0,987.8,37.0,71.0,,394.0,,,378.8,,377.3,377.296,4,2,9,9,9
2019-03-09T02:35:30.000Z,26NA20190308,57.779,9.512,,2020.0N,SOCATENHANCEDDOI,B,,6.157,6.37,989.62,993.2,35.0,987.8,39.0,71.0,,394.8,,,379.9,,378.4,378.392,4,2,9,9,9
2019-03-09T02:37:03.000Z,26NA20190308,57.779,9.499,,2020.0N,SOCATENHANCEDDOI,B,,6.221,6.43,989.67,993.2,35.0,987.8,40.0,71.0,,395.7,,,380.8,,379.3,379.29,4,2,9,9,9
2019-03-09T02:38:56.000Z,26NA20190308,57.779,9.484,,2020.0N,SOCATENHANCEDDOI,B,,6.244,6.47,989.54,992.3,35.0,987.8,42.0,71.0,,397.1,,,381.5,,380.0,379.989,4,2,9,9,9
2019-03-09T02:40:29.000Z,26NA20190308,57.779,9.472,,2020.0N,SOCATENHANCEDDOI,B,,6.25,6.48,989.4,992.9,35.0,987.8,43.0,72.0,,398.6,,,383.1,,381.6,381.582,4,2,9,9,9
2019-03-09T02:42:01.000Z,26NA20190308,57.778,9.459,,2020.0N,SOCATENHANCEDDOI,B,,6.228,6.47,989.36,992.6,35.0,987.8,44.0,72.0,,399.5,,,383.7,,382.1,382.179,4,2,9,9,9
2019-03-09T02:43:34.000Z,26NA20190308,57.778,9.447,,2020.0N,SOCATENHANCEDDOI,B,,6.218,6.45,989.27,992.8,35.0,987.8,46.0,72.0,,399.7,,,384.1,,382.6,382.577,4,2,9,9,9
2019-03-09T02:45:07.000Z,26NA20190308,57.778,9.434,,2020.0N,SOCATENHANCEDDOI,B,,6.224,6.45,989.6,992.4,35.0,987.8,48.0,73.0,,400.0,,,384.3,,382.8,382.777,4,2,9,9,9
2019-03-09T02:46:39.000Z,26NA20190308,57.778,9.422,,2020.0N,SOCATENHANCEDDOI,B,,6.246,6.47,989.3,992.6,35.0,987.8,51.0,73.0,,400.2,,,384.7,,383.1,383.176,4,2,9,9,9
2019-03-09T02:48:12.000Z,26NA20190308,57.777,9.409,,2020.0N,SOCATENHANCEDDOI,B,,6.257,6.48,989.18,992.5,35.0,987.8,53.0,73.0,,400.6,,,385.0,,383.5,383.475,4,2,9,9,9
2019-03-09T02:49:44.000Z,26NA20190308,57.777,9.397,,2020.0N,SOCATENHANCEDDOI,B,,6.265,6.49,989.1,992.4,35.0,987.8,55.0,73.0,,400.9,,,385.2,,383.7,383.674,4,2,9,9,9
2019-03-09T02:51:17.000Z,26NA20190308,57.776,9.385,,2020.0N,SOCATENHANCEDDOI,B,,6.279,6.5,988.68,992.4,35.0,987.8,57.0,74.0,,400.9,,,385.2,,383.7,383.675,4,2,9,9,9
2019-03-09T02:52:50.000Z,26NA20190308,57.776,9.372,,2020.0N,SOCATENHANCEDDOI,B,,6.315,6.54,988.71,991.8,35.0,987.8,60.0,74.0,,401.0,,,385.1,,383.6,383.577,4,2,9,9,9
2019-03-09T02:54:22.000Z,26NA20190308,57.776,9.36,,2020.0N,SOCATENHANCEDDOI,B,,6.32,6.55,988.63,991.8,35.0,987.8,62.0,74.0,,400.3,,,384.3,,382.8,382.78,4,2,9,9,9
2019-03-09T02:55:55.000Z,26NA20190308,57.776,9.347,,2020.0N,SOCATENHANCEDDOI,B,,6.317,6.55,988.75,991.8,35.0,987.8,66.0,75.0,,399.6,,,383.6,,382.1,382.083,4,2,9,9,9
2019-03-09T02:57:27.000Z,26NA20190308,57.777,9.335,,2020.0N,SOCATENHANCEDDOI,B,,6.316,6.55,988.74,991.9,35.0,987.8,71.0,75.0,,398.8,,,382.9,,381.3,381.385,4,2,9,9,9
2019-03-09T02:59:00.000Z,26NA20190308,57.777,9.322,,2020.0N,SOCATENHANCEDDOI,B,,6.318,6.55,988.56,991.9,35.0,987.8,76.0,75.0,,398.1,,,382.2,,380.7,380.688,4,2,9,9,9
2019-03-09T03:00:33.000Z,26NA20190308,57.777,9.31,,2020.0N,SOCATENHANCEDDOI,B,,6.316,6.55,988.38,991.8,35.0,987.8,81.0,76.0,,397.5,,,381.5,,380.0,379.991,4,2,9,9,9